Myrtle Beach, SC

2:39 AM EDT on May 30, 2017 (GMT -0400)
Myrtle Beach International

Weather History for KMYR - March, 2014

Change the Weather History Date:

Wednesday, March 5, 2014

  Actual Average Record
Temperature  
Mean Temperature 38 °F -  
Max Temperature 42 °F 59 °F 80 °F (1955)
Min Temperature 35 °F 40 °F 24 °F (2002)
Degree Days  
Heating Degree Days 26    
Moisture  
Dew Point 32 °F    
Average Humidity 81    
Maximum Humidity 100    
Minimum Humidity 70    
Precipitation  
Precipitation 0.00 in - - ()
Sea Level Pressure  
Sea Level Pressure 30.15 in    
Wind  
Wind Speed 11 mph (North)    
Max Wind Speed 13 mph    
Max Gust Speed 17 mph    
Visibility 8 miles    
Events Rain    
Averages and records for this station are not official NWS values.
T = Trace of Precipitation, MM = Missing Value Source: NWS Daily Summary

Daily Weather History Graph

Daily Weather History Graph

Search for Another Location

Airport or City:

Trip Planner

Search our weather history database for the weather conditions in past years. The results will help you decide how hot, cold, wet, or windy it might be!

Date:

Astronomy

Mar. 05, 2014 Rise Set
Actual Time 6:39 AM EST 6:15 PM EST
Civil Twilight 6:14 AM EST 6:40 PM EST
Nautical Twilight 5:45 AM EST 7:09 PM EST
Astronomical Twilight 5:16 AM EST 7:38 PM EST
Moon 9:17 AM EST (3/5) 11:06 PM EST (3/5)
Length of Visible Light 12h 26m
Length of Day
11h 36m
Waxing Crescent, 23% of the Moon is Illuminated
Mar 5
Waxing Crescent
Mar 8
First Quarter
Mar 16
Full
Mar 23
Last Quarter
Mar 30
New

Hourly Weather History & Observations

Time (EST) Temp. Windchill Dew Point Humidity Pressure Visibility Wind Dir Wind Speed Gust Speed Precip Events Conditions
12:15 AM 37.4 °F 29.8 °F 28.4 °F 70% 30.17 in 10.0 mi North 11.5 mph - N/A   Mostly Cloudy
12:35 AM 37.4 °F 29.8 °F 28.4 °F 70% 30.16 in 10.0 mi NNE 11.5 mph - N/A   Overcast
12:55 AM 35.6 °F 28.0 °F 28.4 °F 75% 30.14 in 10.0 mi NNE 10.4 mph - N/A   Overcast
1:15 AM 35.6 °F 28.6 °F 28.4 °F 75% 30.14 in 10.0 mi NNE 9.2 mph - N/A   Mostly Cloudy
1:35 AM 35.6 °F 28.6 °F 28.4 °F 75% 30.12 in 10.0 mi NNE 9.2 mph - N/A   Partly Cloudy
1:55 AM 35.6 °F 28.0 °F 28.4 °F 75% 30.13 in 10.0 mi NNE 10.4 mph - N/A   Mostly Cloudy
2:15 AM 35.6 °F 28.6 °F 28.4 °F 75% 30.11 in 10.0 mi NNE 9.2 mph - N/A   Overcast
2:35 AM 35.6 °F 27.5 °F 28.4 °F 75% 30.09 in 10.0 mi NNE 11.5 mph - N/A   Overcast
2:55 AM 35.6 °F 28.0 °F 28.4 °F 75% 30.11 in 10.0 mi North 10.4 mph - N/A   Mostly Cloudy
3:15 AM 35.6 °F 29.2 °F 26.6 °F 70% 30.13 in 10.0 mi NNW 8.1 mph - N/A   Mostly Cloudy
3:35 AM 35.6 °F 28.0 °F 26.6 °F 70% 30.13 in 10.0 mi North 10.4 mph - N/A   Overcast
3:55 AM 35.6 °F 27.5 °F 26.6 °F 70% 30.13 in 10.0 mi North 11.5 mph - N/A   Overcast
4:15 AM 35.6 °F 28.6 °F 28.4 °F 75% 30.13 in 10.0 mi North 9.2 mph - N/A   Overcast
4:35 AM 35.6 °F 29.2 °F 26.6 °F 70% 30.14 in 10.0 mi NNW 8.1 mph - N/A   Overcast
4:55 AM 35.6 °F 29.9 °F 28.4 °F 75% 30.15 in 10.0 mi NNW 6.9 mph - N/A   Overcast
5:15 AM 35.6 °F 27.5 °F 26.6 °F 70% 30.16 in 10.0 mi North 11.5 mph - N/A   Overcast
5:35 AM 35.6 °F 27.5 °F 26.6 °F 70% 30.16 in 10.0 mi North 11.5 mph - N/A   Overcast
5:55 AM 35.6 °F 28.0 °F 28.4 °F 75% 30.15 in 10.0 mi North 10.4 mph - N/A   Mostly Cloudy
6:50 AM 35.6 °F 27.5 °F 28.4 °F 75% 30.17 in 7.0 mi North 11.5 mph - N/A   Overcast
7:50 AM 35.6 °F 27.5 °F 28.4 °F 75% 30.17 in 10.0 mi North 11.5 mph 17.3 mph N/A   Mostly Cloudy
8:46 AM 35.6 °F 28.6 °F 28.4 °F 75% 30.19 in 7.0 mi North 9.2 mph - N/A   Overcast
9:46 AM 37.4 °F 30.8 °F 32.0 °F 81% 30.18 in 7.0 mi North 9.2 mph - N/A   Overcast
10:20 AM 37.4 °F 29.8 °F 33.8 °F 87% 30.17 in 6.0 mi North 11.5 mph - N/A Rain Light Rain
10:47 AM 37.4 °F 29.8 °F 33.8 °F 87% 30.16 in 5.0 mi North 11.5 mph - N/A Rain Light Rain
11:05 AM 37.4 °F 29.8 °F 35.6 °F 93% 30.15 in 5.0 mi North 11.5 mph - N/A Rain Light Rain
11:45 AM 39.2 °F 32.0 °F 35.6 °F 87% 30.16 in 5.0 mi North 11.5 mph - N/A Rain Light Rain
12:45 PM 39.2 °F 32.0 °F 35.6 °F 87% 30.13 in 5.0 mi North 11.5 mph - N/A   Overcast
1:47 PM 39.2 °F 32.0 °F 35.6 °F 87% 30.14 in 5.0 mi North 11.5 mph - N/A Rain Light Rain
2:47 PM 41.0 °F 34.3 °F 37.4 °F 87% 30.12 in 4.0 mi North 11.5 mph - N/A Rain Light Rain
3:45 PM 42.8 °F 36.2 °F 39.2 °F 87% 30.13 in 4.0 mi North 12.7 mph - N/A Rain Light Rain
4:45 PM 41.0 °F 34.3 °F 37.4 °F 87% 30.14 in 4.0 mi North 11.5 mph - N/A Rain Light Rain
5:45 PM 39.2 °F 32.0 °F 37.4 °F 93% 30.15 in 8.0 mi North 11.5 mph - N/A   Overcast
7:45 PM 39.2 °F 33.0 °F 37.4 °F 93% 30.18 in 8.0 mi NNE 9.2 mph - N/A   Overcast
8:20 PM 39.2 °F 32.0 °F 39.2 °F 100% 30.17 in 10.0 mi NNE 11.5 mph - N/A   Scattered Clouds
8:45 PM 39.2 °F 32.0 °F 37.4 °F 93% 30.18 in 10.0 mi NNE 11.5 mph - N/A   Mostly Cloudy
9:45 PM 39.2 °F 32.0 °F 37.4 °F 93% 30.20 in 10.0 mi North 11.5 mph - N/A   Mostly Cloudy
10:55 PM 39.2 °F 32.0 °F 37.4 °F 93% 30.19 in 10.0 mi North 11.5 mph - N/A   Scattered Clouds
11:15 PM 39.2 °F 33.0 °F 37.4 °F 93% 30.21 in 10.0 mi North 9.2 mph - N/A   Mostly Cloudy
11:35 PM 39.2 °F 32.0 °F 35.6 °F 87% 30.19 in 10.0 mi North 11.5 mph - N/A   Partly Cloudy
11:55 PM 39.2 °F 32.0 °F 35.6 °F 87% 30.20 in 10.0 mi NNE 11.5 mph - N/A   Clear